Year,Month,Day,Hour,Minute,Value (Times are PST for windspeed in km/hr)
2024,03,10,00,00,34.50
2024,03,10,00,01,31.80
2024,03,10,00,02,26.40
2024,03,10,00,03,28.80
2024,03,10,00,04,20.80
2024,03,10,00,05,32.20
2024,03,10,00,06,31.50
2024,03,10,00,07,33.00
2024,03,10,00,08,29.50
2024,03,10,00,09,30.10
2024,03,10,00,10,29.30
2024,03,10,00,11,31.90
2024,03,10,00,12,29.40
2024,03,10,00,13,23.70
2024,03,10,00,14,36.00
2024,03,10,00,15,24.80
2024,03,10,00,16,24.10
2024,03,10,00,17,31.80
2024,03,10,00,18,33.40
2024,03,10,00,19,16.30
2024,03,10,00,20,28.50
2024,03,10,00,21,29.50
2024,03,10,00,22,28.80
2024,03,10,00,23,29.30
2024,03,10,00,24,27.80
2024,03,10,00,25,31.90
2024,03,10,00,26,25.60
2024,03,10,00,27,27.20
2024,03,10,00,28,26.80
2024,03,10,00,29,28.40
2024,03,10,00,30,40.60
2024,03,10,00,31,32.20
2024,03,10,00,32,20.80
2024,03,10,00,33,23.00
2024,03,10,00,34,35.20
2024,03,10,00,35,31.20
2024,03,10,00,36,31.70
2024,03,10,00,37,28.70
2024,03,10,00,38,29.90
2024,03,10,00,39,22.40
2024,03,10,00,40,25.20
2024,03,10,00,41,35.80
2024,03,10,00,42,25.70
2024,03,10,00,43,36.30
2024,03,10,00,44,34.40
2024,03,10,00,45,44.00
2024,03,10,00,46,29.40
2024,03,10,00,47,28.70
2024,03,10,00,48,22.90
2024,03,10,00,49,24.40
2024,03,10,00,50,28.30
2024,03,10,00,51,28.70
2024,03,10,00,52,23.90
2024,03,10,00,53,28.80
2024,03,10,00,54,23.50
2024,03,10,00,55,30.40
2024,03,10,00,56,24.30
2024,03,10,00,57,32.30
2024,03,10,00,58,25.40
2024,03,10,00,59,26.90
2024,03,10,01,00,36.80
2024,03,10,01,01,23.00
2024,03,10,01,02,21.70
2024,03,10,01,03,33.90
2024,03,10,01,04,20.80
2024,03,10,01,05,27.30
2024,03,10,01,06,23.50
2024,03,10,01,07,35.30
2024,03,10,01,08,33.70
2024,03,10,01,09,31.50
2024,03,10,01,10,25.90
2024,03,10,01,11,34.30
2024,03,10,01,12,25.20
2024,03,10,01,13,22.70
2024,03,10,01,14,26.50
2024,03,10,01,15,22.50
2024,03,10,01,16,31.30
2024,03,10,01,17,33.20
2024,03,10,01,18,39.80
2024,03,10,01,19,30.40
2024,03,10,01,20,23.10
2024,03,10,01,21,24.60
2024,03,10,01,22,34.00
2024,03,10,01,23,28.70
2024,03,10,01,24,29.30
2024,03,10,01,25,42.60
2024,03,10,01,26,28.50
2024,03,10,01,27,25.40
2024,03,10,01,28,33.90
2024,03,10,01,29,34.80
2024,03,10,01,30,26.90
2024,03,10,01,31,24.40
2024,03,10,01,32,28.70
2024,03,10,01,33,26.20
2024,03,10,01,34,28.20
2024,03,10,01,35,30.30
2024,03,10,01,36,27.40
2024,03,10,01,37,37.10
2024,03,10,01,38,28.10
2024,03,10,01,39,25.50
2024,03,10,01,40,28.30
2024,03,10,01,41,25.20
2024,03,10,01,42,19.90
2024,03,10,01,43,26.60
2024,03,10,01,44,27.80
2024,03,10,01,45,32.00
2024,03,10,01,46,36.20
2024,03,10,01,47,24.60
2024,03,10,01,48,34.30
2024,03,10,01,49,25.00
2024,03,10,01,50,38.60
2024,03,10,01,51,22.80
2024,03,10,01,52,22.40
2024,03,10,01,53,32.20
2024,03,10,01,54,32.30
2024,03,10,01,55,21.90
2024,03,10,01,56,23.20
2024,03,10,01,57,24.80
2024,03,10,01,58,16.90
2024,03,10,01,59,35.40
2024,03,10,03,00,35.80
2024,03,10,03,01,31.30
2024,03,10,03,02,22.50
2024,03,10,03,03,18.20
2024,03,10,03,04,24.30
2024,03,10,03,05,33.80
2024,03,10,03,06,26.60
2024,03,10,03,07,20.00
2024,03,10,03,08,31.00
2024,03,10,03,09,17.50
2024,03,10,03,10,28.20
2024,03,10,03,11,25.40
2024,03,10,03,12,19.30
2024,03,10,03,13,31.90
2024,03,10,03,14,25.00
2024,03,10,03,15,22.90
2024,03,10,03,16,29.90
2024,03,10,03,17,34.20
2024,03,10,03,18,29.20
2024,03,10,03,19,31.60
2024,03,10,03,20,29.70
2024,03,10,03,21,28.70
2024,03,10,03,22,31.90
2024,03,10,03,23,35.90
2024,03,10,03,24,38.00
2024,03,10,03,25,32.70
2024,03,10,03,26,40.10
2024,03,10,03,27,41.40
2024,03,10,03,28,34.60
2024,03,10,03,29,35.60
2024,03,10,03,30,31.40
2024,03,10,03,31,29.60
2024,03,10,03,32,37.30
2024,03,10,03,33,30.20
2024,03,10,03,34,25.70
2024,03,10,03,35,27.80
2024,03,10,03,36,34.50
2024,03,10,03,37,30.00
2024,03,10,03,38,24.00
2024,03,10,03,39,25.10
2024,03,10,03,40,25.50
2024,03,10,03,41,28.40
2024,03,10,03,42,18.30
2024,03,10,03,43,29.40
2024,03,10,03,44,22.30
2024,03,10,03,45,25.60
2024,03,10,03,46,29.60
2024,03,10,03,47,29.80
2024,03,10,03,48,24.90
2024,03,10,03,49,30.30
2024,03,10,03,50,29.60
2024,03,10,03,51,25.40
2024,03,10,03,52,21.40
2024,03,10,03,53,29.00
2024,03,10,03,54,27.00
2024,03,10,03,55,21.80
2024,03,10,03,56,22.30
2024,03,10,03,57,40.90
2024,03,10,03,58,27.90
2024,03,10,03,59,28.30
2024,03,10,04,00,27.00
2024,03,10,04,01,25.80
2024,03,10,04,02,22.80
2024,03,10,04,03,26.40
2024,03,10,04,04,18.00
2024,03,10,04,05,27.20
2024,03,10,04,06,26.00
2024,03,10,04,07,22.20
2024,03,10,04,08,27.40
2024,03,10,04,09,21.90
2024,03,10,04,10,26.30
2024,03,10,04,11,22.90
2024,03,10,04,12,23.20
2024,03,10,04,13,24.60
2024,03,10,04,14,21.60
2024,03,10,04,15,20.30
2024,03,10,04,16,20.50
2024,03,10,04,17,19.80
2024,03,10,04,18,20.00
2024,03,10,04,19,19.80
2024,03,10,04,20,15.40
2024,03,10,04,21,18.70
2024,03,10,04,22,18.70
2024,03,10,04,23,17.90
2024,03,10,04,24,17.90
2024,03,10,04,25,15.90
2024,03,10,04,26,23.20
2024,03,10,04,27,20.20
2024,03,10,04,28,19.10
2024,03,10,04,29,21.40
2024,03,10,04,30,11.70
2024,03,10,04,31,15.50
2024,03,10,04,32,15.90
2024,03,10,04,33,18.10
2024,03,10,04,34,23.40
2024,03,10,04,35,22.80
2024,03,10,04,36,17.50
2024,03,10,04,37,21.50
2024,03,10,04,38,23.30
2024,03,10,04,39,18.30
2024,03,10,04,40,16.70
2024,03,10,04,41,14.20
2024,03,10,04,42,16.80
2024,03,10,04,43,22.10
2024,03,10,04,44,16.80
2024,03,10,04,45,17.70
2024,03,10,04,46,23.40
2024,03,10,04,47,14.90
2024,03,10,04,48,15.10
2024,03,10,04,49,14.40
2024,03,10,04,50,16.30
2024,03,10,04,51,21.00
2024,03,10,04,52,15.40
2024,03,10,04,53,17.40
2024,03,10,04,54,17.30
2024,03,10,04,55,17.10
2024,03,10,04,56,13.30
2024,03,10,04,57,18.20
2024,03,10,04,58,17.50
2024,03,10,04,59,16.00
2024,03,10,05,00,18.10
2024,03,10,05,01,17.40
2024,03,10,05,02,16.80
2024,03,10,05,03,15.40
2024,03,10,05,04,17.20
2024,03,10,05,05,15.20
2024,03,10,05,06,14.30
2024,03,10,05,07,19.80
2024,03,10,05,08,14.30
2024,03,10,05,09,11.10
2024,03,10,05,10,13.00
2024,03,10,05,11,17.50
2024,03,10,05,12,16.30
2024,03,10,05,13,12.30
2024,03,10,05,14,11.10
2024,03,10,05,15,13.40
2024,03,10,05,16,14.30
2024,03,10,05,17,13.00
2024,03,10,05,18,14.40
2024,03,10,05,19,13.30
2024,03,10,05,20,11.50
2024,03,10,05,21,12.40
2024,03,10,05,22,14.40
2024,03,10,05,23,10.00
2024,03,10,05,24,10.00
2024,03,10,05,25,16.30
2024,03,10,05,26,15.40
2024,03,10,05,27,9.90
2024,03,10,05,28,17.80
2024,03,10,05,29,19.10
2024,03,10,05,30,13.50
2024,03,10,05,31,16.70
2024,03,10,05,32,18.30
2024,03,10,05,33,17.40
2024,03,10,05,34,15.30
2024,03,10,05,35,11.40
2024,03,10,05,36,18.70
2024,03,10,05,37,14.40
2024,03,10,05,38,15.70
2024,03,10,05,39,12.30
2024,03,10,05,40,12.10
2024,03,10,05,41,13.80
2024,03,10,05,42,14.60
2024,03,10,05,43,15.70
2024,03,10,05,44,10.50
2024,03,10,05,45,14.20
2024,03,10,05,46,18.80
2024,03,10,05,47,19.80
2024,03,10,05,48,13.80
2024,03,10,05,49,13.50
2024,03,10,05,50,13.60
2024,03,10,05,51,24.40
2024,03,10,05,52,16.00
2024,03,10,05,53,10.60
2024,03,10,05,54,13.50
2024,03,10,05,55,14.90
2024,03,10,05,56,21.90
2024,03,10,05,57,16.80
2024,03,10,05,58,14.30
2024,03,10,05,59,18.10
2024,03,10,06,00,15.00
2024,03,10,06,01,10.60
2024,03,10,06,02,14.30
2024,03,10,06,03,14.60
2024,03,10,06,04,12.80
2024,03,10,06,05,17.30
2024,03,10,06,06,17.20
2024,03,10,06,07,14.30
2024,03,10,06,08,6.40
2024,03,10,06,09,6.40
2024,03,10,06,10,13.40
2024,03,10,06,11,15.50
2024,03,10,06,12,16.80
2024,03,10,06,13,14.60
2024,03,10,06,14,15.70
2024,03,10,06,15,15.90
2024,03,10,06,16,9.40
2024,03,10,06,17,14.10
2024,03,10,06,18,10.90
2024,03,10,06,19,11.50
2024,03,10,06,20,9.40
2024,03,10,06,21,11.80
2024,03,10,06,22,10.50
2024,03,10,06,23,11.80
2024,03,10,06,24,12.50
2024,03,10,06,25,10.00
2024,03,10,06,26,12.20
2024,03,10,06,27,9.80
2024,03,10,06,28,8.10
2024,03,10,06,29,5.30
2024,03,10,06,30,7.90
2024,03,10,06,31,10.20
2024,03,10,06,32,8.80
2024,03,10,06,33,5.30
2024,03,10,06,34,5.50
2024,03,10,06,35,6.30
2024,03,10,06,36,5.90
2024,03,10,06,37,7.90
2024,03,10,06,38,13.90
2024,03,10,06,39,16.70
2024,03,10,06,40,14.20
2024,03,10,06,41,10.80
2024,03,10,06,42,12.00
2024,03,10,06,43,16.90
2024,03,10,06,44,17.60
2024,03,10,06,45,13.60
2024,03,10,06,46,17.20
2024,03,10,06,47,10.20
2024,03,10,06,48,15.50
2024,03,10,06,49,12.00
2024,03,10,06,50,13.00
2024,03,10,06,51,16.40
2024,03,10,06,52,13.60
2024,03,10,06,53,9.40
2024,03,10,06,54,14.00
2024,03,10,06,55,11.90
2024,03,10,06,56,10.50
2024,03,10,06,57,9.70
2024,03,10,06,58,5.10
2024,03,10,06,59,7.10
2024,03,10,07,00,7.40
2024,03,10,07,01,6.10
2024,03,10,07,02,4.10
2024,03,10,07,03,2.70
2024,03,10,07,04,0.60
2024,03,10,07,05,0.00
2024,03,10,07,06,0.00
2024,03,10,07,07,0.00
2024,03,10,07,08,0.00
2024,03,10,07,09,0.00
2024,03,10,07,10,0.00
2024,03,10,07,11,0.00
2024,03,10,07,12,0.00
2024,03,10,07,13,0.00
2024,03,10,07,14,0.00
2024,03,10,07,15,0.00
2024,03,10,07,16,0.00
2024,03,10,07,17,0.00
2024,03,10,07,18,0.00
2024,03,10,07,19,0.00
2024,03,10,07,20,0.00
2024,03,10,07,21,0.20
2024,03,10,07,22,4.40
2024,03,10,07,23,1.70
2024,03,10,07,24,0.50
2024,03,10,07,25,3.60
2024,03,10,07,26,3.00
2024,03,10,07,27,5.50
2024,03,10,07,28,4.90
2024,03,10,07,29,1.40
2024,03,10,07,30,4.10
2024,03,10,07,31,4.90
2024,03,10,07,32,3.90
2024,03,10,07,33,1.30
2024,03,10,07,34,3.30
2024,03,10,07,35,1.90
2024,03,10,07,36,1.40
2024,03,10,07,37,4.70
2024,03,10,07,38,5.70
2024,03,10,07,39,6.60
2024,03,10,07,40,5.60
2024,03,10,07,41,7.10
2024,03,10,07,42,4.00
2024,03,10,07,43,5.10
2024,03,10,07,44,4.20
2024,03,10,07,45,5.30
2024,03,10,07,46,4.00
2024,03,10,07,47,3.60
2024,03,10,07,48,3.50
2024,03,10,07,49,4.20
2024,03,10,07,50,2.30
2024,03,10,07,51,2.60
2024,03,10,07,52,0.90
2024,03,10,07,53,0.00
2024,03,10,07,54,0.00
2024,03,10,07,55,0.00
2024,03,10,07,56,0.00
2024,03,10,07,57,0.60
2024,03,10,07,58,1.10
2024,03,10,07,59,2.00
2024,03,10,08,00,3.70
2024,03,10,08,01,5.00
2024,03,10,08,02,4.60
2024,03,10,08,03,3.60
2024,03,10,08,04,2.80
2024,03,10,08,05,3.20
2024,03,10,08,06,4.00
2024,03,10,08,07,4.60
2024,03,10,08,08,3.90
2024,03,10,08,09,1.50
2024,03,10,08,10,0.00
2024,03,10,08,11,0.50
2024,03,10,08,12,1.80
2024,03,10,08,13,2.10
2024,03,10,08,14,3.80
2024,03,10,08,15,2.40
2024,03,10,08,16,3.50
2024,03,10,08,17,1.20
2024,03,10,08,18,0.00
2024,03,10,08,19,0.00
2024,03,10,08,20,1.70
2024,03,10,08,21,2.20
2024,03,10,08,22,2.30
2024,03,10,08,23,0.60
2024,03,10,08,24,0.00
2024,03,10,08,25,0.00
2024,03,10,08,26,0.10
2024,03,10,08,27,0.30
2024,03,10,08,28,0.00
2024,03,10,08,29,0.00
2024,03,10,08,30,0.00
2024,03,10,08,31,0.00
2024,03,10,08,32,0.00
2024,03,10,08,33,0.00
2024,03,10,08,34,0.00
2024,03,10,08,35,0.00
2024,03,10,08,36,0.00
2024,03,10,08,37,0.00
2024,03,10,08,38,0.00
2024,03,10,08,39,0.00
2024,03,10,08,40,0.00
2024,03,10,08,41,0.00
2024,03,10,08,42,0.00
2024,03,10,08,43,0.00
2024,03,10,08,44,0.00
2024,03,10,08,45,0.00
2024,03,10,08,46,0.00
2024,03,10,08,47,0.00
2024,03,10,08,48,0.00
2024,03,10,08,49,0.00
2024,03,10,08,50,0.00
2024,03,10,08,51,0.70
2024,03,10,08,52,0.00
2024,03,10,08,53,0.00
2024,03,10,08,54,0.00
2024,03,10,08,55,0.00
2024,03,10,08,56,0.30
2024,03,10,08,57,0.10
2024,03,10,08,58,0.00
2024,03,10,08,59,0.00
2024,03,10,09,00,0.00
2024,03,10,09,01,0.00
2024,03,10,09,02,0.00
2024,03,10,09,03,0.00
2024,03,10,09,04,0.00
2024,03,10,09,05,0.00
2024,03,10,09,06,0.00
2024,03,10,09,07,0.00
2024,03,10,09,08,0.00
2024,03,10,09,09,0.00
2024,03,10,09,10,0.00
2024,03,10,09,11,0.00
2024,03,10,09,12,0.00
2024,03,10,09,13,0.00
2024,03,10,09,14,0.00
2024,03,10,09,15,0.00
2024,03,10,09,16,0.00
2024,03,10,09,17,1.00
2024,03,10,09,18,0.60
2024,03,10,09,19,0.30
2024,03,10,09,20,0.00
2024,03,10,09,21,0.00
2024,03,10,09,22,0.00
2024,03,10,09,23,1.70
2024,03,10,09,24,0.00
2024,03,10,09,25,0.00
2024,03,10,09,26,0.00
2024,03,10,09,27,0.00
2024,03,10,09,28,0.00
2024,03,10,09,29,0.00
2024,03,10,09,30,0.00
2024,03,10,09,31,0.00
2024,03,10,09,32,0.00
2024,03,10,09,33,0.00
2024,03,10,09,34,0.00
2024,03,10,09,35,0.00
2024,03,10,09,36,4.40
2024,03,10,09,37,2.00
2024,03,10,09,38,1.50
2024,03,10,09,39,1.70
2024,03,10,09,40,0.50
2024,03,10,09,41,1.50
2024,03,10,09,42,2.50
2024,03,10,09,43,5.10
2024,03,10,09,44,2.40
2024,03,10,09,45,5.60
2024,03,10,09,46,2.10
2024,03,10,09,47,5.50
2024,03,10,09,48,3.40
2024,03,10,09,49,4.60
2024,03,10,09,50,6.80
2024,03,10,09,51,4.00
2024,03,10,09,52,5.10
2024,03,10,09,53,2.90
2024,03,10,09,54,1.90
2024,03,10,09,55,3.50
2024,03,10,09,56,3.60
2024,03,10,09,57,3.50
2024,03,10,09,58,0.50
2024,03,10,09,59,2.40
2024,03,10,10,00,3.60
2024,03,10,10,01,3.90
2024,03,10,10,02,2.30
2024,03,10,10,03,2.40
2024,03,10,10,04,1.30
2024,03,10,10,05,1.80
2024,03,10,10,06,5.30
2024,03,10,10,07,3.90
2024,03,10,10,08,1.90
2024,03,10,10,09,1.10
2024,03,10,10,10,7.50
2024,03,10,10,11,5.10
2024,03,10,10,12,8.20
2024,03,10,10,13,6.30
2024,03,10,10,14,4.80
2024,03,10,10,15,5.00
2024,03,10,10,16,6.90
2024,03,10,10,17,6.10
2024,03,10,10,18,7.70
2024,03,10,10,19,8.00
2024,03,10,10,20,3.50
2024,03,10,10,21,5.60
2024,03,10,10,22,6.00
2024,03,10,10,23,4.00
2024,03,10,10,24,4.30
2024,03,10,10,25,6.10
2024,03,10,10,26,6.70
2024,03,10,10,27,6.80
2024,03,10,10,28,4.70
2024,03,10,10,29,4.30
2024,03,10,10,30,3.40
2024,03,10,10,31,5.40
2024,03,10,10,32,7.10
2024,03,10,10,33,4.40
2024,03,10,10,34,5.10
2024,03,10,10,35,5.80
2024,03,10,10,36,3.50
2024,03,10,10,37,3.20
2024,03,10,10,38,3.70
2024,03,10,10,39,6.40
2024,03,10,10,40,6.80
2024,03,10,10,41,8.60
2024,03,10,10,42,9.70
2024,03,10,10,43,9.30
2024,03,10,10,44,10.70
2024,03,10,10,45,13.50
2024,03,10,10,46,12.00
2024,03,10,10,47,10.40
2024,03,10,10,48,6.80
2024,03,10,10,49,13.80
2024,03,10,10,50,17.20
2024,03,10,10,51,16.20
2024,03,10,10,52,15.30
2024,03,10,10,53,16.20
2024,03,10,10,54,15.10
2024,03,10,10,55,14.60
2024,03,10,10,56,13.80
2024,03,10,10,57,12.30
2024,03,10,10,58,11.30
2024,03,10,10,59,12.50
2024,03,10,11,00,15.00
2024,03,10,11,01,15.80
2024,03,10,11,02,15.00
2024,03,10,11,03,13.30
2024,03,10,11,04,15.10
2024,03,10,11,05,11.10
2024,03,10,11,06,15.10
2024,03,10,11,07,11.50
2024,03,10,11,08,10.40
2024,03,10,11,09,10.30
2024,03,10,11,10,10.30
2024,03,10,11,11,17.00
2024,03,10,11,12,18.60
2024,03,10,11,13,15.50
2024,03,10,11,14,13.50
2024,03,10,11,15,11.00
2024,03,10,11,16,17.60
2024,03,10,11,17,16.60
2024,03,10,11,18,13.90
2024,03,10,11,19,12.00
2024,03,10,11,20,14.60
2024,03,10,11,21,14.00
2024,03,10,11,22,10.80
2024,03,10,11,23,16.50
2024,03,10,11,24,13.40
2024,03,10,11,25,8.80
2024,03,10,11,26,10.20
2024,03,10,11,27,14.40
2024,03,10,11,28,11.90
2024,03,10,11,29,11.10
2024,03,10,11,30,10.70
2024,03,10,11,31,13.20
2024,03,10,11,32,14.90
2024,03,10,11,33,12.20
2024,03,10,11,34,11.60
2024,03,10,11,35,7.70
2024,03,10,11,36,6.40
2024,03,10,11,37,12.70
2024,03,10,11,38,11.70
2024,03,10,11,39,10.30
2024,03,10,11,40,7.50
2024,03,10,11,41,7.90
2024,03,10,11,42,12.40
2024,03,10,11,43,15.60
2024,03,10,11,44,13.30
2024,03,10,11,45,12.70
2024,03,10,11,46,10.70
2024,03,10,11,47,13.70
2024,03,10,11,48,13.90
2024,03,10,11,49,8.70
2024,03,10,11,50,5.80
2024,03,10,11,51,7.30
2024,03,10,11,52,10.20
2024,03,10,11,53,11.70
2024,03,10,11,54,6.00
2024,03,10,11,55,5.70
2024,03,10,11,56,9.80
2024,03,10,11,57,14.50
2024,03,10,11,58,11.20
2024,03,10,11,59,7.90
2024,03,10,12,00,6.40
2024,03,10,12,01,9.60
2024,03,10,12,02,10.20
2024,03,10,12,03,8.30
2024,03,10,12,04,11.40
2024,03,10,12,05,7.70
2024,03,10,12,06,9.50
2024,03,10,12,07,11.00
2024,03,10,12,08,9.20
2024,03,10,12,09,3.50
2024,03,10,12,10,3.90
2024,03,10,12,11,7.50
2024,03,10,12,12,11.70
2024,03,10,12,13,4.60
2024,03,10,12,14,7.90
2024,03,10,12,15,7.40
2024,03,10,12,16,7.50
2024,03,10,12,17,7.70
2024,03,10,12,18,3.90
2024,03,10,12,19,9.60
2024,03,10,12,20,14.30
2024,03,10,12,21,11.80
2024,03,10,12,22,11.80
2024,03,10,12,23,13.00
2024,03,10,12,24,11.30
2024,03,10,12,25,10.50
2024,03,10,12,26,9.40
2024,03,10,12,27,7.40
2024,03,10,12,28,8.00
2024,03,10,12,29,10.40
2024,03,10,12,30,18.10
2024,03,10,12,31,16.40
2024,03,10,12,32,15.70
2024,03,10,12,33,18.20
2024,03,10,12,34,15.80
2024,03,10,12,35,14.00
2024,03,10,12,36,19.50
2024,03,10,12,37,20.80
2024,03,10,12,38,14.20
2024,03,10,12,39,13.80
2024,03,10,12,40,11.20
2024,03,10,12,41,11.80
2024,03,10,12,42,16.70
2024,03,10,12,43,21.20
2024,03,10,12,44,16.80
2024,03,10,12,45,16.10
2024,03,10,12,46,13.50
2024,03,10,12,47,14.80
2024,03,10,12,48,9.30
2024,03,10,12,49,6.80
2024,03,10,12,50,9.00
2024,03,10,12,51,13.50
2024,03,10,12,52,10.30
2024,03,10,12,53,11.80
2024,03,10,12,54,17.00
2024,03,10,12,55,12.40
2024,03,10,12,56,11.80
2024,03,10,12,57,12.00
2024,03,10,12,58,9.40
2024,03,10,12,59,14.70
2024,03,10,13,00,14.20
2024,03,10,13,01,11.80
2024,03,10,13,02,15.20
2024,03,10,13,03,15.90
2024,03,10,13,04,14.10
2024,03,10,13,05,13.60
2024,03,10,13,06,18.20
2024,03,10,13,07,15.50
2024,03,10,13,08,13.00
2024,03,10,13,09,12.80
2024,03,10,13,10,12.00
2024,03,10,13,11,19.10
2024,03,10,13,12,13.60
2024,03,10,13,13,12.40
2024,03,10,13,14,20.90
2024,03,10,13,15,16.10
2024,03,10,13,16,10.90
2024,03,10,13,17,20.40
2024,03,10,13,18,21.60
2024,03,10,13,19,20.10
2024,03,10,13,20,16.20
2024,03,10,13,21,18.60
2024,03,10,13,22,14.90
2024,03,10,13,23,19.30
2024,03,10,13,24,19.40
2024,03,10,13,25,18.10
2024,03,10,13,26,18.30
2024,03,10,13,27,16.90
2024,03,10,13,28,16.30
2024,03,10,13,29,17.00
2024,03,10,13,30,19.20
2024,03,10,13,31,20.00
2024,03,10,13,32,22.10
2024,03,10,13,33,21.10
2024,03,10,13,34,21.10
2024,03,10,13,35,23.10
2024,03,10,13,36,22.70
2024,03,10,13,37,15.10
2024,03,10,13,38,17.50
2024,03,10,13,39,18.60
2024,03,10,13,40,21.70
2024,03,10,13,41,15.90
2024,03,10,13,42,14.00
2024,03,10,13,43,8.90
2024,03,10,13,44,13.90
2024,03,10,13,45,21.10
2024,03,10,13,46,16.50
2024,03,10,13,47,10.50
2024,03,10,13,48,22.40
2024,03,10,13,49,21.90
2024,03,10,13,50,21.20
2024,03,10,13,51,18.90
2024,03,10,13,52,21.60
2024,03,10,13,53,15.30
2024,03,10,13,54,12.20
2024,03,10,13,55,13.80
2024,03,10,13,56,17.40
2024,03,10,13,57,20.80
2024,03,10,13,58,16.10
2024,03,10,13,59,17.10
2024,03,10,14,00,15.10
2024,03,10,14,01,22.50
2024,03,10,14,02,19.00
2024,03,10,14,03,18.60
2024,03,10,14,04,14.60
2024,03,10,14,05,8.40
2024,03,10,14,06,7.10
2024,03,10,14,07,13.60
2024,03,10,14,08,17.30
2024,03,10,14,09,12.70
2024,03,10,14,10,12.80
2024,03,10,14,11,10.70
2024,03,10,14,12,12.80
2024,03,10,14,13,19.90
2024,03,10,14,14,21.40
2024,03,10,14,15,16.10
2024,03,10,14,16,18.80
2024,03,10,14,17,17.00
2024,03,10,14,18,18.30
2024,03,10,14,19,13.10
2024,03,10,14,20,15.80
2024,03,10,14,21,14.30
2024,03,10,14,22,18.10
2024,03,10,14,23,13.60
2024,03,10,14,24,16.80
2024,03,10,14,25,15.50
2024,03,10,14,26,15.70
2024,03,10,14,27,14.90
2024,03,10,14,28,15.80
2024,03,10,14,29,15.60
2024,03,10,14,30,17.30
2024,03,10,14,31,19.50
2024,03,10,14,32,16.30
2024,03,10,14,33,16.70
2024,03,10,14,34,13.70
2024,03,10,14,35,13.80
2024,03,10,14,36,14.10
2024,03,10,14,37,13.70
2024,03,10,14,38,15.50
2024,03,10,14,39,19.70
2024,03,10,14,40,16.50
2024,03,10,14,41,12.20
2024,03,10,14,42,10.90
2024,03,10,14,43,11.70
2024,03,10,14,44,13.20
2024,03,10,14,45,15.00
2024,03,10,14,46,14.80
2024,03,10,14,47,16.70
2024,03,10,14,48,17.60
2024,03,10,14,49,12.20
2024,03,10,14,50,15.90
2024,03,10,14,51,12.60
2024,03,10,14,52,7.60
2024,03,10,14,53,9.80
2024,03,10,14,54,7.70
2024,03,10,14,55,10.50
2024,03,10,14,56,9.50
2024,03,10,14,57,14.50
2024,03,10,14,58,13.80
2024,03,10,14,59,16.00
2024,03,10,15,00,15.60
2024,03,10,15,01,15.70
2024,03,10,15,02,13.90
2024,03,10,15,03,14.20
2024,03,10,15,04,9.40
2024,03,10,15,05,12.70
2024,03,10,15,06,10.30
2024,03,10,15,07,10.40
2024,03,10,15,08,8.30
2024,03,10,15,09,9.90
2024,03,10,15,10,10.10
2024,03,10,15,11,8.30
2024,03,10,15,12,10.20
2024,03,10,15,13,7.60
2024,03,10,15,14,10.80
2024,03,10,15,15,12.70
2024,03,10,15,16,13.00
2024,03,10,15,17,10.30
2024,03,10,15,18,9.20
2024,03,10,15,19,8.20
2024,03,10,15,20,9.80
2024,03,10,15,21,9.40
2024,03,10,15,22,5.40
2024,03,10,15,23,8.30
2024,03,10,15,24,9.40
2024,03,10,15,25,6.50
2024,03,10,15,26,5.40
2024,03,10,15,27,1.20
2024,03,10,15,28,0.00
2024,03,10,15,29,5.50
2024,03,10,15,30,5.10
2024,03,10,15,31,6.00
2024,03,10,15,32,4.80
2024,03,10,15,33,5.10
2024,03,10,15,34,4.90
2024,03,10,15,35,4.10
2024,03,10,15,36,5.00
2024,03,10,15,37,5.80
2024,03,10,15,38,8.20
2024,03,10,15,39,6.30
2024,03,10,15,40,11.50
2024,03,10,15,41,12.10
2024,03,10,15,42,7.60
2024,03,10,15,43,13.50
2024,03,10,15,44,10.80
2024,03,10,15,45,8.30
2024,03,10,15,46,8.70
2024,03,10,15,47,16.60
2024,03,10,15,48,16.30
2024,03,10,15,49,15.70
2024,03,10,15,50,15.70
2024,03,10,15,51,12.50
2024,03,10,15,52,10.40
2024,03,10,15,53,12.40
2024,03,10,15,54,11.90
2024,03,10,15,55,10.50
2024,03,10,15,56,11.60
2024,03,10,15,57,10.00
2024,03,10,15,58,8.30
2024,03,10,15,59,9.30
2024,03,10,16,00,11.70
2024,03,10,16,01,11.30
2024,03,10,16,02,11.40
2024,03,10,16,03,10.60
2024,03,10,16,04,10.70
2024,03,10,16,05,10.90
2024,03,10,16,06,6.20
2024,03,10,16,07,5.20
2024,03,10,16,08,8.70
2024,03,10,16,09,14.20
2024,03,10,16,10,14.90
2024,03,10,16,11,9.60
2024,03,10,16,12,9.60
2024,03,10,16,13,4.80
2024,03,10,16,14,5.70
2024,03,10,16,15,5.20
2024,03,10,16,16,10.20
2024,03,10,16,17,13.60
2024,03,10,16,18,13.50
2024,03,10,16,19,10.70
2024,03,10,16,20,12.40
2024,03,10,16,21,12.80
2024,03,10,16,22,10.00
2024,03,10,16,23,10.00
2024,03,10,16,24,12.00
2024,03,10,16,25,11.70
2024,03,10,16,26,10.30
2024,03,10,16,27,11.00
2024,03,10,16,28,12.10
2024,03,10,16,29,14.80
2024,03,10,16,30,12.30
2024,03,10,16,31,12.70
2024,03,10,16,32,11.30
2024,03,10,16,33,11.70
2024,03,10,16,34,10.70
2024,03,10,16,35,9.80
2024,03,10,16,36,8.50
2024,03,10,16,37,12.50
2024,03,10,16,38,12.30
2024,03,10,16,39,14.20
2024,03,10,16,40,10.50
2024,03,10,16,41,15.40
2024,03,10,16,42,15.30
2024,03,10,16,43,9.70
2024,03,10,16,44,5.20
2024,03,10,16,45,10.20
2024,03,10,16,46,13.70
2024,03,10,16,47,13.80
2024,03,10,16,48,17.20
2024,03,10,16,49,13.60
2024,03,10,16,50,13.50
2024,03,10,16,51,14.20
2024,03,10,16,52,12.60
2024,03,10,16,53,15.20
2024,03,10,16,54,14.00
2024,03,10,16,55,13.70
2024,03,10,16,56,13.40
2024,03,10,16,57,14.60
2024,03,10,16,58,16.80
2024,03,10,16,59,13.10
2024,03,10,17,00,7.40
2024,03,10,17,01,16.30
2024,03,10,17,02,9.90
2024,03,10,17,03,8.10
2024,03,10,17,04,9.50
2024,03,10,17,05,13.00
2024,03,10,17,06,15.60
2024,03,10,17,07,13.90
2024,03,10,17,08,12.80
2024,03,10,17,09,14.60
2024,03,10,17,10,7.20
2024,03,10,17,11,11.50
2024,03,10,17,12,10.50
2024,03,10,17,13,15.80
2024,03,10,17,14,17.40
2024,03,10,17,15,13.40
2024,03,10,17,16,13.90
2024,03,10,17,17,13.50
2024,03,10,17,18,15.70
2024,03,10,17,19,11.70
2024,03,10,17,20,17.40
2024,03,10,17,21,11.20
2024,03,10,17,22,13.70
2024,03,10,17,23,14.80
2024,03,10,17,24,16.10
2024,03,10,17,25,15.40
2024,03,10,17,26,12.60
2024,03,10,17,27,9.00
2024,03,10,17,28,9.40
2024,03,10,17,29,10.10
2024,03,10,17,30,13.90
2024,03,10,17,31,9.40
2024,03,10,17,32,12.70
2024,03,10,17,33,16.20
2024,03,10,17,34,11.70
2024,03,10,17,35,12.10
2024,03,10,17,36,12.70
2024,03,10,17,37,11.20
2024,03,10,17,38,11.80
2024,03,10,17,39,13.30
2024,03,10,17,40,14.60
2024,03,10,17,41,12.50
2024,03,10,17,42,14.10
2024,03,10,17,43,15.80
2024,03,10,17,44,13.80
2024,03,10,17,45,9.70
2024,03,10,17,46,16.10
2024,03,10,17,47,13.10
2024,03,10,17,48,15.90
2024,03,10,17,49,15.40
2024,03,10,17,50,19.00
2024,03,10,17,51,17.20
2024,03,10,17,52,14.00
2024,03,10,17,53,13.50
2024,03,10,17,54,13.20
2024,03,10,17,55,17.60
2024,03,10,17,56,12.70
2024,03,10,17,57,15.80
2024,03,10,17,58,14.80
2024,03,10,17,59,13.10
2024,03,10,18,00,14.80
2024,03,10,18,01,13.70
2024,03,10,18,02,13.70
2024,03,10,18,03,10.00
2024,03,10,18,04,6.90
2024,03,10,18,05,6.80
2024,03,10,18,06,6.00
2024,03,10,18,07,10.40
2024,03,10,18,08,8.00
2024,03,10,18,09,5.30
2024,03,10,18,10,5.70
2024,03,10,18,11,3.90
2024,03,10,18,12,6.40
2024,03,10,18,13,6.90
2024,03,10,18,14,7.80
2024,03,10,18,15,8.90
2024,03,10,18,16,4.50
2024,03,10,18,17,4.10
2024,03,10,18,18,3.80
2024,03,10,18,19,3.00
2024,03,10,18,20,3.80
2024,03,10,18,21,7.30
2024,03,10,18,22,8.00
2024,03,10,18,23,6.00
2024,03,10,18,24,3.70
2024,03,10,18,25,6.30
2024,03,10,18,26,6.90
2024,03,10,18,27,6.60
2024,03,10,18,28,8.50
2024,03,10,18,29,5.50
2024,03,10,18,30,9.30
2024,03,10,18,31,9.70
2024,03,10,18,32,7.60
2024,03,10,18,33,3.30
2024,03,10,18,34,5.90
2024,03,10,18,35,10.00